Regional Weather Roundup
Issued by NWS Boston, MA

Current Version | Previous Version | Text Only | Print | Product List | Glossary Off
Versions: 1 2 3 4 5 6 7 8 9 10 11 12 13 14 15 16 17 18 19 20 21 22 23 24 25 26 27

000
ASUS41 KBOX 191610
RWRBOX

REGIONAL WEATHER ROUNDUP
NATIONAL WEATHER SERVICE BOSTON/NORTON MA
1200 PM EDT THU APR 19 2018

NOTE:  "FAIR" INDICATES FEW OR NO CLOUDS BELOW 12,000 FEET WITH NO
SIGNIFICANT WEATHER AND/OR OBSTRUCTIONS TO VISIBILITY.

MAZALL-191700-
EASTERN MASSACHUSETTS

CITY           SKY/WX    TMP DP  RH WIND       PRES   REMARKS
BOSTON         CLOUDY    39  35  86 N3        29.68
BEVERLY        CLOUDY    38  36  92 CALM      29.68F
LAWRENCE       CLOUDY    40  35  83 CALM      29.70F
BEDFORD        PTSUNNY   38  36  92 NW5       29.68F FOG
BLUE HILL        N/A     36  35  96 CALM      29.65F
NORWOOD        CLOUDY    41  35  79 CALM      29.68F
MARSHFIELD     CLOUDY    39  39 100 CALM      29.69F
PLYMOUTH       CLOUDY    40  37  89 N5        29.69F
TAUNTON        CLOUDY    40  37  89 CALM      29.69F
NEW BEDFORD    CLOUDY    40  38  93 N7        29.68S
$$

MAZALL-191700-
CAPE COD AND THE ISLANDS

CITY           SKY/WX    TMP DP  RH WIND       PRES   REMARKS
FALMOUTH       MIX PCPN  39  37  93 N8G15     29.69
HYANNIS        RAIN      40  39  97 N9        29.67R FOG
CHATHAM        LGT RAIN  41  39  93 NE7       29.68F
PROVINCETOWN   LGT RAIN  38  37  97 NW9       29.72R WCI  31
NANTUCKET      CLOUDY    43  41  93 NE8       29.65F
MARTHAS VNYRD  LGT RAIN  42  40  92 N10       29.69R FOG
$$

MAZALL-191700-
CENTRAL AND WESTERN MASSACHUSETTS

CITY           SKY/WX    TMP DP  RH WIND       PRES   REMARKS
WORCESTER      CLOUDY    36  32  85 W5        29.65F
FITCHBURG      CLOUDY    43  36  76 NW5       29.69F
ORANGE         CLOUDY    40  33  76 CALM      29.68F
SPRINGFIELD    PTSUNNY   40  36  86 CALM      29.68
WESTFIELD      CLOUDY    42  38  85 VRB6      29.68F
NORTH ADAMS    CLOUDY    38  31  76 NW5       29.69F
PITTSFIELD     CLOUDY    39  31  72 W8        29.65F
$$

RIZALL-191700-
RHODE ISLAND

CITY           SKY/WX    TMP DP  RH WIND       PRES   REMARKS
PROVIDENCE     CLOUDY    41  39  93 NE6       29.66F
NEWPORT        CLOUDY    40  38  93 N9        29.67F
BLOCK ISLAND   CLOUDY    40  40 100 N7        29.69F
SMITHFIELD     CLOUDY    38  36  92 MISG      29.67F
WESTERLY       CLOUDY    43  41  93 NE6       29.69F
$$

CTZALL-191700-
CONNECTICUT

CITY           SKY/WX    TMP DP  RH WIND       PRES   REMARKS
BRADLEY INTL   CLOUDY    40  36  86 VRB3      29.70S
HARTFORD       CLOUDY    40  36  86 N5        29.71S
BRIDGEPORT     CLOUDY    43  37  79 N6        29.71R
DANBURY        CLOUDY    40  35  83 N3        29.71R
GROTON         CLOUDY    42  39  89 N9        29.68S
NEW HAVEN      CLOUDY    42  36  79 N7        29.70F
CHESTER        CLOUDY    41  37  87 N6        29.68S
MERIDEN        CLOUDY    39  35  86 N5        29.70R
WILLIMANTIC    CLOUDY    40  37  89 N5        29.69F
OXFORD         CLOUDY    38  34  85 N5        29.69F
$$

MEZ002-015-021-024-NHZ003-005-008-011-012-014-VTZ005-008-191700-
NORTHERN NEW ENGLAND

CITY           SKY/WX    TMP DP  RH WIND       PRES   REMARKS
PORTLAND ME    CLOUDY    43  34  70 S10G17    29.68S
BANGOR ME      CLOUDY    46  29  51 W3        29.65F
CONCORD NH     CLOUDY    42  33  70 VRB3      29.66F
MANCHESTER NH  PTSUNNY   42  37  82 CALM      29.67F
NASHUA NH      CLOUDY    40  37  89 NW5       29.70F
PORTSMOUTH NH  CLOUDY    38  36  94 W5        29.67F
JAFFREY NH     CLOUDY    39  34  82 CALM      29.65F
KEENE NH       CLOUDY    45  32  60 N7        29.67F
BURLINGTON VT  PTSUNNY   41  26  55 N12       29.72R
MT. WASHINGTON FOG       23  23 100 NW6         N/A  VSB 0   WCI  16
$$

NYZ052-076-191700-
EASTERN NEW YORK

CITY           SKY/WX    TMP DP  RH WIND       PRES   REMARKS
ALBANY         CLOUDY    42  29  59 NW10      29.72S
NEW YORK CITY  LGT RAIN  44  37  76 N12       29.70S
$$

ANZALL-191700-
MARINE OBSERVATIONS

STATION/POSITION TIME  TEMP    WIND        PRES    VSBY  WAVE
                       AIR SEA DIR/SP/G                  HT/PER
                 (UTC) (F)     (DEG/KT/KT) (MB)    (MI)  (FT/S)
BOSTON BUOY      1550   37 42  350/  2/  4 1005.1F         1/ 9
BUZZARDS BAY     1500   40      40/ 17/ 18 1004.8F
NANTUCKET SOUND  1550   41 43   40/ 12/ 16 1004.4F         1
MASS BAY-STELLWA 1504   35 41              1005.4F         2/11
ISLE OF SHOALS   1600   36     250/  3/  3 1004.9F
S OF BLOCK IS    1543      41                N/A           3/ 8
$$

......................KEY.........................
  SKY/WX - SKY CONDITION/PRESENT WEATHER
  TMP    - TEMPERATURE IN FAHRENHEIT
  DWPT   - DEWPOINT IN FAHRENHEIT
  RH     - RELATIVE HUMIDITY IN PERCENT
  WIND   - DIRECTION AND SPEED IN MPH
  PRES   - MEAN SEA LEVEL PRESSURE IN INCHES OF HG
  WCI    - WIND CHILL INDEX
  VSB    - VISIBILITY IN MILES
  HX     - HEAT INDEX
  TC     - TEMPERATURE IN CELSIUS
  VRB    - VARIABLE WIND DIRECTION
  N/A    - NOT AVAILABLE




USA.gov is the U.S. government's official web portal to all federal, state and local government web resources and services.